Location: Blue Mountain Vista Observatory
(40.6992°N, 75.9422°W)
Time: 07:16:39
(UTC-05:00)

Daily predictions for brighter satellites

Satellite Brightness Start Highest point End
(mag) Time Altitude Azimuth Time Altitude Azimuth Time Altitude Azimuth
Cosmos 468 Rocket 4.0 17:03:47 10° NNW 17:08:57 66° ENE 17:14:02 10° SSE
Meteor 2-10 Rocket 3.9 17:04:16 10° SSW 17:09:27 75° W 17:14:53 10° N
MSX 4.2 17:05:57 10° S 17:11:42 75° WSW 17:17:30 10° NNW
Cosmos 972 Rocket 3.8 17:10:36 10° NNW 17:15:32 68° ENE 17:20:25 10° SSE
Cosmos 1340 2.9 17:13:28 10° SSW 17:17:14 76° W 17:21:01 10° N
ALOS 3.7 17:14:35 10° E 17:17:24 16° ENE 17:20:13 10° NNE
GENESIS II 4.3 17:14:31 10° NNW 17:18:23 55° NE 17:22:13 10° SE
SMAP 3.0 17:21:43 10° SSE 17:26:19 71° ENE 17:30:59 10° N
USA 161 3.8 17:25:27 10° NW 17:26:26 13° WNW 17:27:26 10° WSW
Cosmos 2233 Rocket 4.0 17:21:54 10° S 17:28:03 64° E 17:34:12 10° NNE
Cosmos 1763 Rocket 3.5 17:23:57 10° NNW 17:29:06 58° ENE 17:34:09 10° SSE
Cosmos 1908 Rocket 4.0 17:26:04 10° N 17:30:09 39° ENE 17:34:12 10° SSE
ERS-2 2.9 17:27:33 10° SE 17:30:46 29° ENE 17:33:59 10° N
SKYMED 2 4.5 17:27:16 10° NE 17:31:02 28° E 17:34:47 10° SSE
Cosmos 1733 Rocket 3.2 17:28:04 10° N 17:32:31 79° W 17:36:57 10° S
Cosmos 1844 Rocket 3.7 17:28:37 10° SW 17:34:01 46° WNW 17:39:28 10° NNE
AQUARIUS 4.1 17:30:12 10° SSE 17:34:41 85° ENE 17:39:12 10° NNW
Cosmos 2242 Rocket 4.3 17:31:15 10° SSW 17:35:45 60° W 17:40:15 10° N
COSMOS 2406 4.1 17:32:57 10° NNW 17:38:33 55° WSW 17:44:05 10° S
CZ-2C R/B 4.4 17:34:42 10° SSW 17:39:10 33° W 17:43:47 10° NNW
Cosmos 1814 Rocket 4.0 17:35:32 10° NNW 17:40:55 83° ENE 17:46:17 10° SSE
Sich 1 Rocket 3.9 17:37:55 10° N 17:42:10 44° ENE 17:46:25 10° SSE
Cosmos 1862 Rocket 4.0 17:38:20 10° SSW 17:42:42 66° W 17:47:10 10° N
Meteor 1-14 Rocket 4.1 17:38:11 10° N 17:43:52 73° E 17:49:24 10° SSE
CZ-4C R/B 3.9 17:40:56 10° NNW 17:46:31 25° NE 17:50:24 17° ENE
SL-27 R/B 2.8 17:45:01 10° N 17:48:08 36° ENE 17:51:15 10° SE
IRS-1A Rocket 4.3 17:44:09 10° SSE 17:49:58 81° ENE 17:55:43 10° NNW
Ariane Rocket 3.8 17:49:05 10° S 17:54:04 56° W 17:59:04 10° NNW
FENGYUN 3A 4.1 17:49:33 10° SE 17:54:31 38° ENE 17:59:30 10° N
USA 234 3.4 17:52:30 16° ENE 17:57:48 59° SE 18:04:14 10° SSW
Cosmos 540 Rocket 3.8 17:53:43 10° N 17:58:36 41° ENE 18:03:27 10° SE
COSMOS 2455 3.6 17:53:12 10° SW 17:59:02 52° WNW 18:04:57 10° NNE
Okean 1-7 3.2 17:57:36 10° SSE 18:01:48 49° E 18:06:03 10° NNE
CZ-4 R/B 4.4 17:58:13 10° SSE 18:02:23 85° ENE 18:06:33 10° NNW
Cosmos 2297 4.0 17:57:11 10° S 18:02:35 46° ESE 18:06:35 18° NE
Cosmos 1833 Rocket 2.9 17:57:22 10° NNW 18:02:45 44° ENE 18:08:06 10° SE
Cosmos 841 Rocket 3.5 17:58:25 10° NNW 18:03:44 88° ENE 18:08:59 10° SSE
Cosmos 1633 2.5 18:01:13 10° N 18:04:51 58° E 18:08:28 10° SSE
MTI 3.7 18:02:52 10° N 18:06:04 83° W 18:09:16 10° SSW
CZ-4 R/B 2.3 18:03:29 10° S 18:07:14 49° W 18:10:59 10° NNW
Cosmos 2278 Rocket 2.5 18:02:46 10° SSW 18:08:24 67° WNW 18:14:05 10° NNE
Lacrosse 5 4.1 18:06:11 10° NW 18:08:57 14° NNW 18:11:44 10° NNE
Cosmos 1486 Rocket 4.2 18:04:33 10° SSW 18:09:45 74° WNW 18:15:01 10° NNE
Cosmos 44 Rocket 4.1 18:08:25 10° NNW 18:12:44 30° NE 18:13:12 30° ENE
Cosmos 1782 Rocket 3.4 18:10:16 10° N 18:14:36 71° E 18:18:57 10° SSE
MOS 1 4.2 18:08:58 10° SSE 18:14:40 84° ENE 18:20:24 10° NNW
COSMO-SKYMED 1 2.6 18:14:53 10° N 18:19:15 83° WNW 18:23:35 10° SSW
YAOGAN 1 3.3 18:15:32 10° S 18:19:46 56° W 18:24:03 10° NNW
Cosmos 1072 Rocket 4.4 18:16:09 10° S 18:22:21 80° E 18:28:40 10° N
SPOT 3 Rocket 3.5 18:19:04 10° SSE 18:24:17 84° ENE 18:29:32 10° NNW
Cosmos 1354 Rocket 3.9 18:20:52 10° SSW 18:26:08 80° ESE 18:29:47 21° NNE
Cosmos 292 Rocket 4.0 18:21:46 10° N 18:26:19 43° ENE 18:26:25 43° ENE
Nadezhda 4 Rocket 4.2 18:21:47 10° N 18:27:34 42° ENE 18:33:18 10° SSE
Cosmos 1441 Rocket 4.2 18:24:02 10° SSE 18:26:30 32° SE 18:26:30 32° SE
BREEZE-M DEB (TANK) 2.3 18:25:52 10° WSW 18:27:47 59° NW 18:27:47 59° NW
Cosmos 1606 3.2 18:24:47 10° SSW 18:28:31 58° W 18:32:00 12° N
Cosmos 2034 Rocket 4.0 18:22:39 10° S 18:28:54 61° E 18:35:09 10° NNE
Cosmos 2221 Rocket 3.6 18:28:09 10° S 18:32:33 82° W 18:36:18 14° N
EO 1 Del DPAF 4.0 18:30:33 12° N 18:33:54 52° WNW 18:37:37 10° SSW
NOAA 12 4.1 18:34:03 10° SSE 18:39:22 83° WSW 18:44:43 10° NNW
Meteor 2-6 Rocket 4.2 18:35:13 10° SSW 18:40:38 81° W 18:46:13 10° N
CENTAUR R/B 4.4 18:37:20 10° W 18:42:24 24° NW 18:48:01 10° NNE
Cosmos 1782 4.2 18:41:16 10° SSW 18:45:02 39° WNW 18:48:50 10° N
Cosmos 44 3.3 18:41:04 10° NNW 18:45:16 58° NNE 18:45:16 58° NNE
Cosmos 2082 Rocket 2.2 18:43:01 10° NNW 18:48:44 81° WSW 18:54:22 10° SSE
Meteor 2-20 4.3 18:46:11 10° N 18:52:19 83° E 18:58:22 10° S
Okean 2 Rocket 3.4 18:49:09 10° NNW 18:53:39 67° W 18:58:08 10° S
ALOS 2.9 18:49:49 10° S 18:54:22 54° W 18:58:59 10° NNW
Cosmos 1464 Rocket 4.5 18:51:50 10° SSW 18:57:50 59° W 19:03:54 10° N
Thor Agena Rocket 3.6 18:59:06 62° SSE 18:59:06 62° SSE 19:03:30 10° S
FengYun 1-2 T 4.0 18:55:40 31° SSE 18:58:24 78° ENE 19:03:58 10° N
Cosmos 405 Rocket 3.6 18:55:55 10° SSW 18:58:57 46° WSW 18:58:57 46° WSW
Meteor 1-27 Rocket 3.9 19:01:33 10° SSW 19:07:26 77° W 19:11:10 24° N
CZ-4C R/B 2.8 19:28:45 10° NNW 19:35:39 81° N 19:35:39 81° N
USA 234 3.9 19:39:51 43° N 19:40:40 46° NNW 19:46:49 10° W
